Location: Arthez
(43.0833°N, 0.2500°W)
Time: 00:38:08
(UTC+00:00)

X-37B - Pass Details

Date: 23 October 2021
Orbit: 330 x 341 km, 45.0° (Epoch: 20 November)

Event Time Altitude Azimuth Distance (km) Brightness Sun altitude
Rises 18:52:39 0° 285° (WNW) 2,127 5.8 -20.2°
Reaches altitude 10° 18:54:40 10° 283° (WNW) 1,285 4.4 -20.6°
Enters shadow 18:56:52 44° 260° (W) 478 1.4 -21.0°
